Location: San Martino di Castrozza
(46.2667°N, 11.8000°E)
Time: 06:50:55
(UTC+00:00)

Cosmos 2218 Rocket - Pass Details

Date: 23 April 2021
Orbit: 955 x 1007 km, 82.9° (Epoch: 07 May)

Event Time Altitude Azimuth Distance (km) Brightness Sun altitude
Rises 00:06:42 0° 352° (N) 3,650 8.0 -29.9°
Reaches altitude 10° 00:09:13 10° 355° (N) 2,703 7.1 -29.8°
Maximum altitude 00:15:24 74° 80° (E) 1,008 4.0 -29.4°
Enters shadow 00:15:47 71° 111° (ESE) 1,020 3.9 -29.4°
